• In Hungary
  • List of Countries
  • For 7 days
  • Water Temperature
  • Satellite Maps
  • Weather Map
  • News
  • Weather Widgets
  • user-avatar
    Login

    Hourly Weather Arzano

    Today, 23 September, Sunday

    Time Temperature Precipitation Wind Pressure Humidity
    00:00 +25°C° 0 mm 1 mps 757 mmHg 70%
    01:00 +25°C° 0 mm 1 mps 757 mmHg 74%
    02:00 +25°C° 0 mm 1 mps 757 mmHg 74%
    03:00 +24°C° 0 mm 1 mps 757 mmHg 75%
    04:00 +24°C° 0 mm 1 mps 757 mmHg 76%
    05:00 +25°C° 0 mm 1 mps 757 mmHg 74%
    06:00 +25°C° 0 mm 1 mps 757 mmHg 73%
    07:00 +25°C° 0 mm 1 mps 757 mmHg 69%
    08:00 +27°C° 0 mm 1 mps 757 mmHg 62%
    09:00 +29°C° 0 mm 1 mps 757 mmHg 55%
    10:00 +30°C° 0 mm 2 mps 757 mmHg 47%
    11:00 +31°C° 0 mm 2 mps 757 mmHg 45%
    12:00 +32°C° 0 mm 2 mps 757 mmHg 43%
    13:00 +34°C° 0 mm 3 mps 757 mmHg 40%
    14:00 +33°C° 0 mm 3 mps 757 mmHg 42%
    15:00 +31°C° 0 mm 3 mps 756 mmHg 44%
    16:00 +31°C° 0 mm 3 mps 756 mmHg 46%
    17:00 +29°C° 0 mm 3 mps 756 mmHg 54%
    18:00 +28°C° 0 mm 3 mps 756 mmHg 61%
    19:00 +26°C° 0 mm 2 mps 756 mmHg 68%
    20:00 +25°C° 0 mm 2 mps 756 mmHg 72%
    21:00 +25°C° 0 mm 2 mps 756 mmHg 76%
    22:00 +24°C° 0 mm 2 mps 756 mmHg 80%
    23:00 +24°C° 0 mm 2 mps 755 mmHg 83%

    Tomorrow, 24 September, Monday

    Time Temperature Precipitation Wind Pressure Humidity
    00:00 +24°C° 0 mm 2 mps 755 mmHg 85%
    01:00 +24°C° 0 mm 2 mps 755 mmHg 87%
    02:00 +24°C° 0.1 mm 2 mps 754 mmHg 87%
    03:00 +24°C° 0.1 mm 3 mps 754 mmHg 87%
    04:00 +24°C° 0.1 mm 3 mps 754 mmHg 87%
    05:00 +24°C° 0.1 mm 3 mps 754 mmHg 86%
    06:00 +24°C° 0.1 mm 3 mps 754 mmHg 85%
    07:00 +25°C° 0.1 mm 3 mps 754 mmHg 84%
    08:00 +26°C° 0.1 mm 3 mps 754 mmHg 78%
    09:00 +27°C° 0.1 mm 3 mps 754 mmHg 72%
    10:00 +28°C° 0.1 mm 2 mps 754 mmHg 66%
    11:00 +29°C° 0 mm 2 mps 754 mmHg 62%
    12:00 +30°C° 0 mm 2 mps 754 mmHg 58%
    13:00 +31°C° 0 mm 2 mps 754 mmHg 54%
    14:00 +30°C° 0 mm 2 mps 754 mmHg 57%
    15:00 +30°C° 0 mm 2 mps 754 mmHg 59%
    16:00 +29°C° 0 mm 2 mps 754 mmHg 62%
    17:00 +28°C° 0.1 mm 2 mps 755 mmHg 65%
    18:00 +26°C° 0.1 mm 2 mps 755 mmHg 69%
    19:00 +24°C° 0.1 mm 3 mps 756 mmHg 72%
    20:00 +22°C° 0.1 mm 4 mps 757 mmHg 72%
    21:00 +21°C° 0.1 mm 5 mps 757 mmHg 71%
    22:00 +21°C° 0.1 mm 7 mps 758 mmHg 70%
    23:00 +20°C° 0 mm 7 mps 758 mmHg 68%

    Day after tomorrow, 25 September, Tuesday

    Time Temperature Precipitation Wind Pressure Humidity
    00:00 +20°C° 0 mm 7 mps 758 mmHg 65%
    01:00 +20°C° 0 mm 7 mps 758 mmHg 62%
    02:00 +20°C° 0 mm 7 mps 758 mmHg 58%
    03:00 +20°C° 0 mm 7 mps 759 mmHg 54%
    04:00 +18°C° 0 mm 8 mps 759 mmHg 50%
    05:00 +18°C° 0 mm 8 mps 759 mmHg 50%
    06:00 +18°C° 0 mm 8 mps 759 mmHg 50%
    07:00 +18°C° 0 mm 8 mps 759 mmHg 50%
    08:00 +20°C° 0 mm 8 mps 760 mmHg 46%
    09:00 +21°C° 0 mm 8 mps 760 mmHg 43%
    10:00 +22°C° 0 mm 8 mps 761 mmHg 39%
    11:00 +23°C° 0 mm 8 mps 761 mmHg 37%
    12:00 +24°C° 0 mm 8 mps 761 mmHg 35%
    13:00 +24°C° 0 mm 7 mps 761 mmHg 33%
    14:00 +24°C° 0 mm 7 mps 761 mmHg 33%
    15:00 +23°C° 0 mm 7 mps 760 mmHg 34%
    16:00 +23°C° 0 mm 7 mps 760 mmHg 35%
    17:00 +21°C° 0 mm 7 mps 761 mmHg 39%
    18:00 +20°C° 0 mm 7 mps 761 mmHg 44%
    19:00 +17°C° 0 mm 7 mps 762 mmHg 48%
    20:00 +17°C° 0 mm 7 mps 762 mmHg 50%
    21:00 +16°C° 0 mm 7 mps 762 mmHg 52%
    22:00 +16°C° 0 mm 7 mps 763 mmHg 54%
    23:00 +15°C° 0 mm 7 mps 763 mmHg 55%

    26 September, Wednesday

    Time Temperature Precipitation Wind Pressure Humidity
    00:00 +15°C° 0 mm 7 mps 763 mmHg 56%
    01:00 +15°C° 0 mm 7 mps 763 mmHg 56%
    02:00 +15°C° 0 mm 6 mps 763 mmHg 57%
    03:00 +14°C° 0 mm 6 mps 763 mmHg 58%
    04:00 +14°C° 0 mm 6 mps 763 mmHg 58%
    05:00 +14°C° 0 mm 6 mps 763 mmHg 58%
    06:00 +15°C° 0 mm 6 mps 763 mmHg 57%
    07:00 +15°C° 0 mm 6 mps 764 mmHg 57%
    08:00 +17°C° 0 mm 6 mps 764 mmHg 52%
    09:00 +19°C° 0 mm 6 mps 764 mmHg 47%
    10:00 +21°C° 0 mm 6 mps 764 mmHg 41%
    11:00 +22°C° 0 mm 6 mps 764 mmHg 39%
    12:00 +23°C° 0 mm 5 mps 764 mmHg 37%
    13:00 +25°C° 0 mm 5 mps 764 mmHg 35%
    14:00 +25°C° 0 mm 5 mps 764 mmHg 36%
    15:00 +25°C° 0 mm 5 mps 764 mmHg 37%
    16:00 +23°C° 0 mm 5 mps 763 mmHg 38%
    17:00 +21°C° 0 mm 5 mps 764 mmHg 43%
    18:00 +20°C° 0 mm 4 mps 764 mmHg 48%
    19:00 +18°C° 0 mm 4 mps 764 mmHg 53%
    20:00 +17°C° 0 mm 4 mps 764 mmHg 55%
    21:00 +17°C° 0 mm 4 mps 765 mmHg 56%
    22:00 +15°C° 0 mm 4 mps 765 mmHg 58%
    23:00 +15°C° 0 mm 4 mps 765 mmHg 58%

    27 September, Thursday

    Time Temperature Precipitation Wind Pressure Humidity
    00:00 +16°C° 0 mm 3 mps 765 mmHg 57%
    01:00 +14°C° 0 mm 3 mps 765 mmHg 57%
    02:00 +14°C° 0 mm 3 mps 764 mmHg 56%
    03:00 +14°C° 0 mm 3 mps 764 mmHg 55%
    04:00 +14°C° 0 mm 3 mps 764 mmHg 54%
    05:00 +14°C° 0 mm 3 mps 764 mmHg 52%
    06:00 +14°C° 0 mm 3 mps 764 mmHg 51%
    07:00 +16°C° 0 mm 2 mps 764 mmHg 49%
    08:00 +18°C° 0 mm 2 mps 764 mmHg 42%
    09:00 +21°C° 0 mm 2 mps 764 mmHg 34%
    10:00 +25°C° 0 mm 1 mps 764 mmHg 27%
    11:00 +26°C° 0 mm 2 mps 763 mmHg 25%
    12:00 +27°C° 0 mm 2 mps 763 mmHg 23%
    13:00 +28°C° 0 mm 2 mps 763 mmHg 20%
    14:00 +28°C° 0 mm 3 mps 762 mmHg 22%
    15:00 +28°C° 0 mm 3 mps 762 mmHg 24%
    16:00 +28°C° 0 mm 4 mps 762 mmHg 25%
    17:00 +26°C° 0 mm 3 mps 761 mmHg 31%
    18:00 +24°C° 0 mm 3 mps 761 mmHg 37%
    19:00 +21°C° 0 mm 3 mps 761 mmHg 43%
    20:00 +20°C° 0 mm 3 mps 761 mmHg 45%
    21:00 +20°C° 0 mm 3 mps 761 mmHg 46%
    22:00 +19°C° 0 mm 3 mps 761 mmHg 47%
    23:00 +19°C° 0 mm 2 mps 760 mmHg 46%

    28 September, Friday

    Time Temperature Precipitation Wind Pressure Humidity
    00:00 +19°C° 0 mm 2 mps 760 mmHg 46%
    01:00 +18°C° 0 mm 2 mps 759 mmHg 45%
    02:00 +18°C° 0 mm 2 mps 759 mmHg 43%
    03:00 +18°C° 0 mm 2 mps 759 mmHg 42%
    04:00 +18°C° 0 mm 2 mps 758 mmHg 41%
    05:00 +18°C° 0 mm 2 mps 758 mmHg 40%
    06:00 +19°C° 0 mm 2 mps 758 mmHg 40%
    07:00 +19°C° 0 mm 2 mps 757 mmHg 39%
    08:00 +23°C° 0 mm 1 mps 757 mmHg 34%
    09:00 +25°C° 0 mm 1 mps 757 mmHg 29%
    10:00 +28°C° 0 mm 1 mps 757 mmHg 24%
    11:00 +29°C° 0 mm 1 mps 757 mmHg 22%
    12:00 +30°C° 0 mm 2 mps 757 mmHg 21%
    13:00 +31°C° 0 mm 2 mps 756 mmHg 20%
    14:00 +30°C° 0 mm 3 mps 756 mmHg 22%
    15:00 +30°C° 0 mm 3 mps 756 mmHg 24%
    16:00 +29°C° 0 mm 3 mps 755 mmHg 25%
    17:00 +27°C° 0 mm 3 mps 756 mmHg 32%
    18:00 +25°C° 0 mm 2 mps 756 mmHg 38%
    19:00 +23°C° 0 mm 2 mps 756 mmHg 44%
    20:00 +23°C° 0 mm 1 mps 756 mmHg 46%
    21:00 +22°C° 0 mm 1 mps 756 mmHg 47%
    22:00 +22°C° 0 mm 1 mps 756 mmHg 49%
    23:00 +21°C° 0 mm 1 mps 756 mmHg 50%
    Show more